Meteo Giornale » Osservazioni meteo Wallis and Futuna » Hihifo Ile Wallis
ore: 23:00 - Osservazioni Meteo Hihifo Ile Wallis
Lat. 13° 14' S Lon. 176° 10' W Alt. 23 metri s.l.m.
25 °C
Molto Nuvoloso
Temp. 24 Ore
25 °C
29 °C
Sud-Est
16.7 Km/h
Dew point 24 °C
Umidità 94 %
Visibilità 10 Km
Il sole sorge alle ore 05:48
Il sole tramonta alle ore 17:40
| Data e Ora | Cielo e Fenomeni | T °C | DP °C | Um. % | Pres. hPa | Vis. km | Vento km/h | |
|---|---|---|---|---|---|---|---|---|
| Oggi h: 23:00 | Molto Nuvoloso | 25 | 24 | 94 | 1015 | 10 | SE 16.7 | |
| Oggi h: 22:30 | Molto Nuvoloso | 25 | 24 | 94 | 1015 | 10 | E/SE 20.3 | |
| Oggi h: 22:00 | Coperto | 26 | 23 | 83 | 1015 | 10 | SE 22.2 | |
| Oggi h: 21:30 | Coperto | 27 | 23 | 78 | 1015 | 10 | SE 18.5 | |
| Oggi h: 21:00 | Coperto | 27 | 23 | 78 | 1015 | 10 | SE 22.2 | |
| Oggi h: 20:30 | Coperto | 27 | 23 | 78 | 1015 | 10 | SE 22.2 | |
| Oggi h: 20:00 | Coperto | 27 | 23 | 78 | 1014 | 10 | SE 18.5 | |
| Oggi h: 19:30 | Coperto | 27 | 23 | 78 | 1014 | 10 | E/SE 22.2 | |
| Oggi h: 19:00 | Coperto | 27 | 23 | 78 | 1014 | 10 | E/SE 20.3 | |
| Oggi h: 18:30 | Molto Nuvoloso | 26 | 23 | 83 | 1013 | 10 | E/SE 22.2 | |
| Oggi h: 18:00 | Molto Nuvoloso | 26 | 23 | 83 | 1013 | 10 | E/SE 18.5 | |
| Oggi h: 17:30 | Coperto | 27 | 23 | 78 | 1013 | 10 | E/SE 20.3 | |
| Oggi h: 17:00 | Molto Nuvoloso | 27 | 23 | 78 | 1013 | 10 | E/SE 22.2 | |
| Oggi h: 16:30 | Molto Nuvoloso | 27 | 23 | 78 | 1012 | 10 | E/SE 22.2 | |
| Oggi h: 16:00 | Molto Nuvoloso | 27 | 23 | 78 | 1012 | 10 | SE 25.9 | |
| Oggi h: 15:30 | Molto Nuvoloso | 28 | 24 | 78 | 1012 | 10 | SE 20.3 | |
| Oggi h: 15:00 | Coperto | 28 | 24 | 78 | 1012 | 10 | SE 24 | |
| Oggi h: 14:30 | Coperto | 28 | 24 | 78 | 1012 | 10 | SE 24 | |
| Oggi h: 14:00 | Coperto | 28 | 23 | 74 | 1013 | 10 | SE 24 | |
| Oggi h: 13:30 | Molto Nuvoloso | 28 | 24 | 78 | 1013 | 10 | SE 24 | |
| Oggi h: 13:00 | Molto Nuvoloso | 28 | 23 | 74 | 1013 | 10 | SE 20.3 | |
| Oggi h: 12:30 | Coperto | 29 | 24 | 74 | 1014 | 10 | SE 22.2 | |
| Oggi h: 12:00 | Coperto | 28 | 23 | 74 | 1014 | 10 | SE 20.3 | |
| Oggi h: 11:30 | Molto Nuvoloso | 29 | 23 | 70 | 1014 | 10 | SE 22.2 | |
| Oggi h: 11:00 | Molto Nuvoloso | 29 | 23 | 70 | 1015 | 10 | SE 24 | |
| Oggi h: 10:30 | Molto Nuvoloso | 28 | 23 | 74 | 1015 | 10 | SE 18.5 | |
| Oggi h: 10:00 | Molto Nuvoloso | 29 | 24 | 74 | 1016 | 10 | SE 22.2 | |
| Oggi h: 09:30 | Coperto | 28 | 23 | 74 | 1016 | 10 | SE 18.5 | |
| Oggi h: 09:00 | Molto Nuvoloso | 28 | 23 | 74 | 1016 | 10 | SE 24 | |
| Oggi h: 08:30 | Nuvoloso | 28 | 23 | 74 | 1015 | 10 | SE 22.2 | |
| Oggi h: 08:00 | Poco Nuvoloso | 28 | 23 | 74 | 1015 | 10 | SE 18.5 | |
| Oggi h: 07:30 | Poco Nuvoloso | 27 | 22 | 74 | 1015 | 10 | SE 18.5 | |
| Oggi h: 07:00 | Molto Nuvoloso | 27 | 22 | 74 | 1015 | 10 | SE 20.3 | |
| Oggi h: 06:30 | Molto Nuvoloso | 26 | 22 | 78 | 1015 | 10 | SE 13 | |
| Oggi h: 06:00 | Molto Nuvoloso | 25 | 22 | 83 | 1014 | 10 | SE 13 | |
| Oggi h: 05:30 | Poco Nuvoloso | 25 | 22 | 83 | 1014 | 10 | E/SE 11.1 | |
| Oggi h: 05:00 | Sereno | 25 | 21 | 78 | 1014 | 10 | SE 11.1 | |
| Oggi h: 04:30 | Sereno | 25 | 22 | 83 | 1014 | 10 | SE 13 | |
| Oggi h: 04:00 | Molto Nuvoloso | 25 | 21 | 78 | 1014 | 10 | E/SE 13 | |
| Oggi h: 03:30 | Nuvoloso | 25 | 21 | 78 | 1014 | 10 | E/SE 9.3 | |
| Oggi h: 03:00 | Nuvoloso | 25 | 21 | 78 | 1014 | 10 | SE 11.1 | |
| Oggi h: 02:30 | Poco Nuvoloso | 25 | 21 | 78 | 1014 | 10 | E/SE 13 | |
| Oggi h: 02:00 | Poco Nuvoloso | 25 | 21 | 78 | 1014 | 10 | E/SE 11.1 | |
| Oggi h: 01:30 | Nuvoloso | 26 | 22 | 78 | 1014 | 10 | E/SE 11.1 | |
| Oggi h: 01:00 | Poco Nuvoloso | 25 | 22 | 83 | 1015 | 10 | E/SE 14.8 | |
| Oggi h: 00:30 | Sereno | 26 | 22 | 78 | 1015 | 10 | E/SE 13 | |
| Oggi h: 00:00 | Nuvoloso | 26 | 22 | 78 | 1015 | 10 | E/SE 13 | |



